Aérodrome :
LOGIN :

S'inscrire | Disclaimer

   EN    FR    IT 

 










Légende :    VFR   VFR Marginal   IFR   IFR Intensif   IFR Très Intensif
Visi : 
Plafond : 
>= 8 km
>= 3000ft
5 à 8 km
1000 à 3000 ft
1500m à 5 km
500 à 1000 ft
800 à 1500m
200 à 500 ft
< 800m
< 200 ft
Symboles :   Orages  Brouillard  Fortes neiges  Fortes précipitations  Vent > 20 kt
SIGMETs :   Divers  Orages  Givrage  Turbulence  Onde Orograph.  Cendres Volcan.







- Altitude de l'aérodrome : 87 ft
- Code IATA : FSC
- Voir les cartes d'approche


LFKF - Figari

DERNIER METAR :
  • 210430Z AUTO 03003KT CAVOK 08/07 Q1019 NOSIG

METARs EXPIRÉS :
  • 210400Z AUTO VRB02KT CAVOK 08/08 Q1019 NOSIG
  • 210330Z AUTO VRB01KT CAVOK 08/08 Q1019 NOSIG
  • 210300Z AUTO VRB02KT CAVOK 09/08 Q1019 NOSIG
  • 210230Z AUTO VRB03KT CAVOK 09/09 Q1019 NOSIG
  • 210200Z AUTO VRB01KT CAVOK 09/08 Q1019

TAF TAF LFKF
Valide du 21 à 03h jusqu'au 22 à 03h UTC


210200Z 2103/2203 VRB05KT CAVOK
BECMG 2108/2110 24010KT
TEMPO 2112/2118 24010G20KT
BECMG 2118/2121 VRB05KT
Pas de NOTAMs connus pour ce terrain.



MET'MAP, la Météo Aéronautique d'un coup d'oeil ! - Copyright ORBIFLY Décembre 2007 - Disclaimer

ORBIFLY MET'MAP TEAM :

Programmation & Développement : Alexandra Zaïnal
Conception & Développement : Baudouin d'Aumeries
Co-Programmation & Développement : Marc-Olivier Méhu
Soutien technique & logistique : Manuel Goepfert

Contact : metmap@orbifly.com




SOURCES & CREDITS :

   NOAA